Hourly Data Report for September 30, 2017

All times are specified in Local Standard Time (LST). Add 1 hour to adjust for Daylight Saving Time where and when it is observed.

KAMLOOPS A
BRITISH COLUMBIA

50°42'09.000" N
120°26'55.000" W
345.30 m
1163781
71887
YKA

Download Data

Hourly Data (September 2017)
Hourly Data Report for September 30, 2017
Temp Definition
°C
Dew Point Temp Definition
°C
Rel Hum Definition
%
Wind Dir Definition
10's deg

Wind Spd Definition
km/h
Visibility Definition
km
Stn Press Definition
kPa
Hmdx Definition


Wind Chill Definition


Weather Definition


TIME
00:00 Legend Double Dagger 13.9 7.3 64 9 4 64.4 96.98     LegendNANA
01:00 Legend Double Dagger 13.7 5.6 58 27 4 64.4 97.03     Mainly Clear
02:00 Legend Double Dagger 12.9 3.9 54 5 8 64.4 97.07     LegendNANA
03:00 Legend Double Dagger 11.9 3.0 54 9 7 64.4 97.10     LegendNANA
04:00 Legend Double Dagger 11.2 2.6 55 10 7 64.4 97.14     Mainly Clear
05:00 Legend Double Dagger 10.5 2.8 59 36 3 64.4 97.17     LegendNANA
06:00 Legend Double Dagger 10.4 2.0 56 36 2 64.4 97.21     LegendNANA
07:00 Legend Double Dagger 9.2 3.5 67 29 5 64.4 97.27     Mainly Clear
08:00 Legend Double Dagger 10.0 4.1 66 36 1 64.4 97.30     LegendNANA
09:00 Legend Double Dagger 12.9 3.0 51 19 3 64.4 97.32     LegendNANA
10:00 Legend Double Dagger 14.2 2.1 44 36 2 64.4 97.30     Mostly Cloudy
11:00 Legend Double Dagger 15.4 2.1 41 29 7 64.4 97.23     LegendNANA
12:00 Legend Double Dagger 15.8 3.1 42 28 16 64.4 97.18     LegendNANA
13:00 Legend Double Dagger 15.8 1.3 37 23 13 64.4 97.20     Mostly Cloudy
14:00 Legend Double Dagger 14.7 4.2 49 6 22 64.4 97.28     LegendNANA
15:00 Legend Double Dagger 13.0 3.4 52 30 13 64.4 97.38     LegendNANA
16:00 Legend Double Dagger 12.2 5.0 61 14 5 64.4 97.36     Mostly Cloudy
17:00 Legend Double Dagger 12.3 4.4 58 16 4 64.4 97.38     LegendNANA
18:00 Legend Double Dagger 10.2 4.5 68 31 7 64.4 97.42     LegendNANA
19:00 Legend Double Dagger 9.1 4.0 70 32 5 64.4 97.48     Mostly Cloudy
20:00 Legend Double Dagger 9.4 6.1 80 24 8 64.4 97.49     LegendNANA
21:00 Legend Double Dagger 8.5 5.8 83 25 8 64.4 97.49     LegendNANA
22:00 Legend Double Dagger 8.9 5.3 78 24 15 64.4 97.51     Mostly Cloudy
23:00 Legend Double Dagger 9.2 4.7 73 24 13 64.4 97.53     LegendNANA

Notes on Data Quality.

Legend

  • E = Estimated
  • M = Missing
  • NA = Not Available
  • ‡ = Partner data that is not subject to review by the National Climate Archives
Date modified: